Regional Weather Roundup
Issued by NWS Green Bay, WI

Home | Current Version | Previous Version | Graphics & Text | Print | Product List | Glossary Off
Versions: 1 2 3 4 5 6 7 8 9 10 11 12 13 14 15 16 17 18 19 20 21 22 23 24 25 26 27 28 29 30 31 32 33 34 35 36 37 38 39 40 41 42 43 44 45 46 47 48 49 50

000
ASUS43 KGRB 131559
RWRGRB

NORTH-CENTRAL AND NORTHEAST WISCONSIN REGIONAL WEATHER ROUNDUP
NATIONAL WEATHER SERVICE GREEN BAY WI
1100 AM CDT SUN JUL 13 2014

WIZ005-009-010>012-018-019-131700-
NORTH CENTRAL WISCONSIN

CITY           SKY/WX    TMP DP  RH WIND       PRES   REMARKS
IRONWOOD       SUNNY     64  45  48 W10G18    29.88S
MANITOWISH WTR NOT AVBL
ARBOR VITAE    NOT AVBL
EAGLE RIVER    NOT AVBL
LAND O LAKES   NOT AVBL
RHINELANDER    SUNNY     64  48  56 VRB7      29.92S
PHILLIPS       SUNNY     64  47  55 N8        29.92F
ANTIGO         NOT AVBL
TOMAHAWK       NOT AVBL
MERRILL        NOT AVBL
$$

WIZ013-073-131700-
NORTHEAST WISCONSIN

CITY           SKY/WX    TMP DP  RH WIND       PRES   REMARKS
IRON MOUNTAIN  MOSUNNY   68  47  46 W12G21    29.85S
MARINETTE      MOSUNNY   72  57  60 W9        29.82F
$$

WIZ017-030-035>037-045-131700-
CENTRAL WISCONSIN

CITY           SKY/WX    TMP DP  RH WIND       PRES   REMARKS
MEDFORD        NOT AVBL
WAUSAU         SUNNY     70  51  51 NW9       29.90S
MOSINEE        MOSUNNY   68  46  45 NW13      29.92S
MARSHFIELD     SUNNY     69  51  52 NW12      29.93S
WISC RAPIDS    SUNNY     73  57  57 NW12      29.93S
STEVENS POINT  NOT AVBL
WAUPACA        PTSUNNY   75  61  60 W10G18    29.90S
SHAWANO        SUNNY     74  53  47 NW12G18   29.87S
CLINTONVILLE   MOSUNNY   73  52  46 NW10      29.88S
$$

WIZ038-039-048-051-131700-
FOX VALLEY

CITY           SKY/WX    TMP DP  RH WIND       PRES   REMARKS
NWS GREEN BAY  PTSUNNY   75  62  64 W16       29.87R
APPLETON       PTSUNNY  N/A N/A N/A W15       29.89S
OSHKOSH        PTSUNNY   74  65  73 W12G18    29.88F
FOND DU LAC    PTSUNNY   73  64  73 W16       29.90S
$$

WIZ022-050-052-131700-
EAST CENTRAL WISCONSIN

CITY           SKY/WX    TMP DP  RH WIND       PRES   REMARKS
STURGEON BAY   SUNNY     72  57  60 NW13      29.85S
MANITOWOC      NOT AVBL
SHEBOYGAN      SUNNY     75  64  68 W13       29.87F
$$

LMZ563-521-522-541>543-131700-
LAKESHORE

STATION/POSITION TIME  TEMP    WIND        PRES    VSBY  WAVE
                       AIR SEA DIR/SP/G                  HT/PER
                 (UTC) (F)     (DEG/KT/KT) (MB)    (MI)  (FT/S)
SHEBOYGAN LKSHOR 1500   73     280/ 18/ 20 1011.6S
KEWAUNEE LKSHORE 1500   73     280/ 10/ 16 1011.5F
TWO RIVERS CG    1500   74                   N/A       6   1
NORTHPORT PIER   1500   69     310/  8/ 13 1009.8S
N MID LAKE BUOY  1500   62 58  280/ 10/ 10 1008.9R         2/ 3
MENOMINEE LKSHOR 1500   72     270/ 11/ 19 1010.9R
$$


USA.gov is the U.S. government's official web portal to all federal, state and local government web resources and services.